Regional Weather Roundup
Issued by NWS

Home | Current Version | Previous Version | Graphics & Text | Print | Product List | Glossary On
Versions: 1 2 3 4 5 6 7 8 9 10 11 12 13 14 15 16 17 18 19 20 21 22 23 24 25 26 27 28 29 30 31 32 33 34 35 36 37 38 39 40 41 42 43 44 45 46 47 48 49 50
000
ASUS43 KTOP 282008
RWRKS

WEATHER ROUNDUP FOR KANSAS
NATIONAL WEATHER SERVICE GOODLAND KS
300 PM CDT TUE MAR 28 2017

NOTE:  "FAIR" INDICATES FEW OR NO CLOUDS BELOW 12,000 FEET WITH NO
SIGNIFICANT WEATHER AND/OR OBSTRUCTIONS TO VISIBILITY.

KSZ001>006-013>018-027>032-041>047-282100-
NORTHWEST KANSAS

CITY           SKY/WX    TMP DP  RH WIND       PRES   REMARKS
GOODLAND       LGT RAIN  45  45 100 SE15      29.91R
HAYS           LGT RAIN  51  46  83 E10       29.95S
HILL CITY      LGT RAIN  49  47  93 SE7       29.98R FOG
RUSSELL        LGT RAIN  53  43  68 E10       29.94R
$$

KSZ061>065-074>080-084>089-282100-
SOUTHWEST KANSAS

CITY           SKY/WX    TMP DP  RH WIND       PRES   REMARKS
DODGE CITY     RAIN      46  45  96 NE7       29.91F FOG
ELKHART          N/A     44  38  79 N12         N/A
GARDEN CITY    TSTM      45  45 100 E16       29.91S FOG
GREAT BEND     LGT RAIN  53  44  71 E14       29.93S
LIBERAL        CLOUDY    45  41  87 E18       29.89R THUNDER
PRATT          CLOUDY    49  42  75 SE12      29.95R
$$

KSZ066>073-081>083-090>101-282100-
SOUTHEAST KANSAS

CITY           SKY/WX    TMP DP  RH WIND       PRES   REMARKS
CHANUTE        CLOUDY    57  48  72 E10       29.96F
COFFEYVILLE    CLOUDY    58  49  72 NE14      29.93F
MEDICINE LODGE   N/A     50  47  89 E10       29.89F
NEWTON         CLOUDY    51  46  83 E14G20    29.94F
PARSONS        CLOUDY    58  49  72 NE8       29.95F
WICHITA INTL   CLOUDY    54  47  77 E18G24    29.91F
WICHITA JABRA  CLOUDY    53  46  77 E17G24    29.92F
WICHITA MCCONL CLOUDY    54  46  75 SE14      29.91F
WINFIELD       CLOUDY    57  47  69 E17G24    29.90F
$$

KSZ007>012-019>026-033>040-048>060-102>105-282100-
NORTHEAST KANSAS

CITY           SKY/WX    TMP DP  RH WIND       PRES   REMARKS
CONCORDIA      CLOUDY    54  43  66 E16G23    29.99F
EMPORIA        CLOUDY    54  49  83 E13       29.97F
LAWRENCE       CLOUDY    57  51  80 NE10      30.02S
MANHATTAN      CLOUDY    56  44  64 E14       30.00F
MARYSVILLE     CLOUDY    52  43  71 E8        30.04S
OLATHE IND     CLOUDY    54  48  80 E10       30.02F
OLATHE EXE     CLOUDY    52  50  93 E9        30.02F
SALINA         CLOUDY    56  44  64 E15       29.95F
TOPEKA BILLARD CLOUDY    56  50  80 E8        30.01F
TOPEKA FORBES  CLOUDY    56  49  77 E12       30.01S
$$




USA.gov is the U.S. government's official web portal to all federal, state and local government web resources and services.